Home   Weather   Banja Luka   Past weeks

Flag for Bosnia-Herzegovina Past Weather in Banja Luka, Bosnia-Herzegovina — Yesterday and Last 2 Weeks

59 °F

Light rain. Overcast.

Feels Like: 59 °F
Forecast: 44 / 55 °F
Wind: 1 mph from South

Location: Banja Luka

Current Time: Oct 26, 2016 at 2:29:27 AM

Latest Report: Oct 26, 2016 at 2:00 AM

Visibility: 6 mi

Pressure: 30.09 "Hg

Humidity: 90%

Dew Point: 56 °F

Location of Banja LukaLocation

Past Weather in Banja Luka — Graph


Banja Luka Temperature Yesterday

Maximum temperature yesterday: 78 °F (at 2:00 PM)
Minimum temperature yesterday: 47 °F (at 6:00 AM)
Average temperature yesterday: 61 °F

High & Low Weather Summary for the Past Weeks

High78 °F (Oct 25, 2:00 PM)100% (Oct 21, 2:00 PM)30.34 "Hg (Oct 21, 2:00 PM)
Low34 °F (Oct 13, 7:00 AM)26% (Oct 19, 8:00 AM)29.86 "Hg (Oct 12, 6:00 AM)
Average52 °F85%30.10 "Hg
* Reported Oct 10 11:00 PM — Oct 25 11:00 PM, Banja Luka, Weather by CustomWeather, © 2016

Note: Actual official high and low records may vary slightly from our data, if they occured in-between our weather recording intervals... More about our weather records


Banja Luka Weather History for the Previous 24 Hours

Scroll right to see more
Time TempWeatherWind HumidityBarometerVisibility
11:00 PM
Tue, Oct 25
59 °FOvercast.No wind90%30.14 "Hg9 mi
10:00 PM60 °FOvercast.No wind87%30.14 "Hg12 mi
9:00 PM61 °FPassing clouds.No wind89%30.19 "Hg12 mi
8:00 PM63 °FPassing clouds.No wind83%30.18 "Hg12 mi
7:00 PM65 °FOvercast.No wind77%30.16 "Hg12 mi
6:00 PM68 °FOvercast.No wind67%30.15 "Hg12 mi
5:00 PM73 °FOvercast.No wind57%30.15 "Hg12 mi
4:00 PM76 °FOvercast.3 mph48%30.15 "Hg12 mi
3:00 PM78 °FPartly sunny.2 mph43%30.15 "Hg12 mi
2:00 PM78 °FOvercast.1 mph42%30.14 "Hg11 mi
12:00 PM66 °FPartly sunny.1 mph63%30.18 "Hg12 mi
11:00 AM60 °FOvercast.No wind80%N/A9 mi
10:00 AM55 °FOvercast.1 mph87%30.21 "Hg6 mi
9:00 AM50 °FOvercast.1 mph97%30.22 "Hg6 mi
8:00 AM47 °FOvercast.1 mph95%30.22 "Hg6 mi
6:00 AM47 °FFog.No wind97%30.22 "Hg5 mi
5:00 AM47 °FFog.No wind97%30.22 "Hg4 mi
2:00 AM49 °FFog.No wind97%30.21 "Hg4 mi
Weather by CustomWeather, © 2016

See weather overviewHow to use our weather pages